Location: Unspecified
(43.4680°N, 87.1740°E)
Time: 21:14:06
(UTC+00:00)

USA 186 - Pass Details

Date: 17 April 2021
Orbit: 264 x 460 km, 96.9° (Epoch: 09 May)

Event Time Altitude Azimuth Distance (km) Brightness Sun altitude
Rises 12:41:21 0° 125° (SE) 2,464 5.1 1.9°
Reaches altitude 10° 12:44:12 10° 99° (E) 1,571 4.0 1.4°
Drops below altitude 10° 12:47:40 10° 37° (NE) 1,536 4.4 0.8°
Enters shadow 13:43:24 -64° 170° (S) 11,837 9.0 -8.8°
Maximum altitude 14:16:46 36° 262° (W) 728 3.4 -14.2°
